Regional Weather Roundup
Issued by NWS

Home | Current Version | Previous Version | Graphics & Text | Print | Product List | Glossary On
Versions: 1 2 3 4 5 6 7 8 9 10 11 12 13 14 15 16 17 18 19 20 21 22 23 24 25 26 27 28 29 30 31 32 33 34 35 36 37 38 39 40 41 42 43 44 45 46 47 48 49 50
589
ASUS43 KDTX 280810
RWRMI
MICHIGAN HOURLY REGIONAL WEATHER ROUNDUP
NATIONAL WEATHER SERVICE DETROIT/PONTIAC MI
ISSUED BY NATIONAL WEATHER SERVICE GRAND RAPIDS MI
400 AM EDT WED JUN 28 2017

NOTE: "FAIR" INDICATES FEW OR NO CLOUDS BELOW 12,000 FEET WITH NO
SIGNIFICANT WEATHER AND/OR OBSTRUCTION TO VISIBILITY.

MIZ047>049-052>055-059>063-066>070-074>076-081>083-280900-
SOUTHEAST LOWER MICHIGAN

CITY           SKY/WX    TMP DP  RH WIND       PRES   REMARKS
ADRIAN         PTCLDY    51  46  83 W5        30.10S
ALMA           CLEAR     51  49  93 W10       30.06S
ANN ARBOR      CLEAR     44  44 100 CALM      30.08S FOG
BAD AXE        CLEAR     52  50  92 SW3       30.05S
DETROIT CITY   CLEAR     57  48  72 W5        30.08R
DETROIT        MOCLDY    54  48  80 S5        30.09R
FLINT          CLEAR     49  46  90 SW3       30.07S
GROSSE ILE     CLEAR     56  47  72 W5        30.08R
HILLSDALE      CLEAR     46  43  87 CALM      30.10R
HOWELL         PTCLDY    52  45  76 CALM      30.07S

CITY           SKY/WX    TMP DP  RH WIND       PRES   REMARKS
JACKSON        CLEAR     50  46  86 SW7       30.08F
LANSING        CLEAR     54  45  71 CALM      30.08S
MASON          CLEAR     52  47  84 S3        30.08S
MONROE         PTCLDY    51  48  90 CALM      30.09R
MT. CLEMENS    PTCLDY    56  49  77 W6        30.05R
PONTIAC        CLEAR     54  49  83 CALM      30.06S
PORT HOPE        N/A     56  52  86 SW6       30.02R
PORT HURON     CLEAR     48  46  93 CALM      30.05F
TRI CITIES     CLEAR     56  52  86 S6        30.05F
YPSILANTI      CLEAR     56  49  77 SW3       30.09R
$$
MIZ043>046-050>051-056>058-064>065-071>073-077>080-280900-
SOUTHWEST LOWER MICHIGAN

CITY           SKY/WX    TMP DP  RH WIND       PRES   REMARKS
BATTLE CREEK   CLEAR     53  45  74 SW5       30.09R
BENTON HARBOR  CLEAR     54  44  69 SE3       30.05F
BIG RAPIDS     CLEAR     50  48  92 S5        30.04S
COLDWATER      CLEAR     49  47  96 CALM      30.10R
HOLLAND        CLEAR     56  46  69 S6        30.05F
GRAND RAPIDS   CLEAR     56  48  74 S7        30.06R
KALAMAZOO      CLEAR     52  45  77 S6        30.09R
MARSHALL       CLEAR     50  48  93 CALM      30.08S
MOUNT PLEASANT PTCLDY    54  49  85 W3        30.04S
MUSKEGON       CLEAR     61  53  75 S8        30.03F
STURGIS        CLEAR     53  47  78 CALM      30.09S
$$
MIZ016>042-280900-
NORTHERN LOWER MICHIGAN

CITY           SKY/WX    TMP DP  RH WIND       PRES   REMARKS
ALPENA         CLEAR     51  48  89 SW5       30.00S
BEAVER ISLAND  CLEAR     59  54  82 SW9G18    29.95S
BELLAIRE       CLEAR     52  49  91 CALM      29.99F
CADILLAC       CLEAR     48  46  93 CALM      30.03F
CHARLEVOIX     CLEAR     58  51  78 S7        30.00S
GAYLORD        PTCLDY    54  46  74 SW7       30.00F
HOUGHTON LAKE  CLEAR     56  49  77 CALM      30.03F
MANISTEE       CLEAR     49  48  97 E3        29.99F
OSCODA         CLEAR     49  47  92 SW6       30.01S
PELLSTON       PTCLDY    54  47  77 CALM      29.97S
TRAVERSE CITY  PTCLDY    59  49  69 VRB5      29.98S
LUDINGTON      PTCLDY    60  52  77 S7        29.99F
$$
MIZ007>008-015-280900-
EASTERN UPPER MICHIGAN

CITY           SKY/WX    TMP DP  RH WIND       PRES   REMARKS
KINROSS        CLEAR     54  50  86 SW5       29.95S
MACKINAC ISLAN CLEAR     58  52  79 SW10      29.95S
NEWBERRY       CLEAR     53  52  97 SW7       29.93S
S. S. MARIE    PTCLDY    53  50  89 CALM      29.94R
$$
MIZ004>006-011>014-085-280900-
CENTRAL UPPER MICHIGAN

CITY           SKY/WX    TMP DP  RH WIND       PRES   REMARKS
MANISTIQUE     PTCLDY    56  53  89 S3        29.93S
ESCANABA       CLOUDY    58  51  78 SW6       29.91F
MENOMINEE      CLOUDY    61  53  75 SW6       29.92F
SAWYER-GWINN   CLOUDY    55  50  81 S6        29.90F
$$
MIZ001>003-009>011-084-280900-
WESTERN UPPER MICHIGAN

CITY           SKY/WX    TMP DP  RH WIND       PRES   REMARKS
IRON MOUNTAIN  CLOUDY    56  47  71 SE3       29.89F
HOUGHTON       CLOUDY    57  48  72 S3        29.83F
COPPER HARBOR    N/A     59  46  62 SW8       29.82F
IRONWOOD       CLEAR     58  47  66 S6        29.81F
$$

ABBREVIATIONS USED IN REMARKS
   TC - TEMPERATURE IN CELSIUS
  WCI - WIND CHILL INDEX
   HX - HEAT INDEX
  VSB - VISIBILITY





USA.gov is the U.S. government's official web portal to all federal, state and local government web resources and services.